Location: Bothwell
(41.7170°N, 112.2589°W)
Time: 01:29:33
(UTC+00:00)

STARLINK-37327 - Pass Details

Date: 19 April 2026
Orbit: 263 x 265 km, 97.3° (Epoch: 18 April)

Event Time Altitude Azimuth Distance (km) Brightness Sun altitude
Rises 04:06:18 0° 11° (NNE) 1,901 5.7 -19.7°
Reaches altitude 10° 04:08:07 10° 11° (NNE) 1,086 4.4 -20.0°
Enters shadow 04:08:15 11° 11° (NNE) 1,022 4.3 -20.0°
